Powrót do katalogu

FENGYUN 1C DEB

AktywnyPO
NORAD 32357·DEBRIS·🇨🇳 China

Wystrzelony May 10, 1999 z Taiyuan Satellite Launch Center

Loading…

Następne Przeloty (najbliższe 24 godziny)

TLE

Starzejące sięSource: Space-Track

Epoka: Sep 9, 2026, 07:21 UTC

1 32357U 99025CZA 26252.30669075  .00002606  00000-0  12941-2 0  9991
2 32357  98.8360 275.8616 0482971 190.1406 237.0142 13.70781747704929

Śledź FENGYUN 1C DEB w czasie rzeczywistym z AllMySat

Download on the App Store